When you browse on this site, cookies collect data to enhance your experience and personalize the content and advertising you see.
Visit our Privacy Policy to learn more. By continuing to use the site, you agree to this use of cookies and data.
  • In Deutschland
  • Länderverzeichnis
  • Für 7 Tage
  • Wassertemperatur
  • Satellitenkarten
  • Wetterkarte
  • Widgets
  • user-avatar
    Anmelden

    Stündliche Wetter Pabna

    Heute, 19 Juli, Freitag

    Zeit Temperatur Niederschläge Wind Luftdruck Luftfeuchtigkeit
    00:00 +30°C° 0 mm 3 m/S 749 mmHg 76%
    01:00 +30°C° 0 mm 3 m/S 749 mmHg 79%
    02:00 +30°C° 0 mm 2 m/S 748 mmHg 81%
    03:00 +30°C° 0 mm 2 m/S 748 mmHg 84%
    04:00 +30°C° 0 mm 2 m/S 748 mmHg 86%
    05:00 +29°C° 0 mm 2 m/S 749 mmHg 87%
    06:00 +30°C° 0 mm 1 m/S 749 mmHg 91%
    07:00 +31°C° 0 mm 2 m/S 749 mmHg 84%
    08:00 +32°C° 0 mm 2 m/S 749 mmHg 76%
    09:00 +35°C° 0 mm 3 m/S 749 mmHg 69%
    10:00 +36°C° 0 mm 3 m/S 749 mmHg 64%
    11:00 +37°C° 0 mm 3 m/S 749 mmHg 60%
    12:00 +37°C° 0 mm 2 m/S 750 mmHg 53%
    13:00 +37°C° 0 mm 2 m/S 749 mmHg 53%
    14:00 +37°C° 0 mm 3 m/S 748 mmHg 54%
    15:00 +38°C° 0 mm 3 m/S 747 mmHg 54%
    16:00 +37°C° 0 mm 3 m/S 747 mmHg 59%
    17:00 +36°C° 0 mm 3 m/S 747 mmHg 63%
    18:00 +35°C° 0 mm 3 m/S 747 mmHg 67%
    19:00 +35°C° 0 mm 3 m/S 748 mmHg 70%
    20:00 +34°C° 0 mm 2 m/S 748 mmHg 72%
    21:00 +32°C° 0 mm 2 m/S 749 mmHg 74%
    22:00 +31°C° 0 mm 3 m/S 749 mmHg 76%
    23:00 +31°C° 0 mm 3 m/S 749 mmHg 78%

    Morgen, 20 Juli, Samstag

    Zeit Temperatur Niederschläge Wind Luftdruck Luftfeuchtigkeit
    00:00 +30°C° 0 mm 4 m/S 750 mmHg 80%
    01:00 +30°C° 0 mm 3 m/S 750 mmHg 82%
    02:00 +30°C° 0 mm 3 m/S 749 mmHg 84%
    03:00 +29°C° 0 mm 3 m/S 749 mmHg 85%
    04:00 +29°C° 0 mm 3 m/S 750 mmHg 86%
    05:00 +29°C° 0 mm 3 m/S 750 mmHg 87%
    06:00 +29°C° 0 mm 3 m/S 750 mmHg 88%
    07:00 +30°C° 0 mm 3 m/S 750 mmHg 82%
    08:00 +33°C° 0 mm 3 m/S 751 mmHg 75%
    09:00 +34°C° 0 mm 4 m/S 751 mmHg 69%
    10:00 +35°C° 0 mm 4 m/S 751 mmHg 65%
    11:00 +36°C° 0 mm 4 m/S 751 mmHg 61%
    12:00 +37°C° 0 mm 4 m/S 750 mmHg 57%
    13:00 +37°C° 0 mm 4 m/S 749 mmHg 55%
    14:00 +38°C° 0 mm 4 m/S 749 mmHg 53%
    15:00 +38°C° 0 mm 4 m/S 748 mmHg 52%
    16:00 +38°C° 0 mm 3 m/S 748 mmHg 55%
    17:00 +37°C° 0 mm 3 m/S 747 mmHg 58%
    18:00 +37°C° 0 mm 3 m/S 747 mmHg 61%
    19:00 +36°C° 0 mm 3 m/S 748 mmHg 64%
    20:00 +34°C° 0 mm 3 m/S 748 mmHg 68%
    21:00 +33°C° 0 mm 3 m/S 749 mmHg 71%
    22:00 +33°C° 0 mm 3 m/S 749 mmHg 73%
    23:00 +32°C° 0 mm 4 m/S 749 mmHg 74%

    übermorgen, 21 Juli, Sonntag

    Zeit Temperatur Niederschläge Wind Luftdruck Luftfeuchtigkeit
    00:00 +32°C° 0 mm 4 m/S 750 mmHg 76%
    01:00 +30°C° 0 mm 4 m/S 749 mmHg 78%
    02:00 +30°C° 0 mm 4 m/S 749 mmHg 80%
    03:00 +30°C° 0 mm 4 m/S 749 mmHg 82%
    04:00 +30°C° 0 mm 4 m/S 749 mmHg 84%
    05:00 +29°C° 0 mm 4 m/S 749 mmHg 85%
    06:00 +29°C° 0 mm 4 m/S 750 mmHg 87%
    07:00 +32°C° 0 mm 4 m/S 750 mmHg 82%
    08:00 +33°C° 0 mm 4 m/S 750 mmHg 76%
    09:00 +34°C° 0 mm 4 m/S 750 mmHg 71%
    10:00 +35°C° 0 mm 4 m/S 750 mmHg 67%
    11:00 +36°C° 0 mm 4 m/S 750 mmHg 62%
    12:00 +37°C° 0 mm 4 m/S 750 mmHg 58%
    13:00 +37°C° 0 mm 4 m/S 749 mmHg 57%
    14:00 +38°C° 0 mm 4 m/S 748 mmHg 56%
    15:00 +38°C° 0 mm 4 m/S 747 mmHg 55%
    16:00 +37°C° 0 mm 4 m/S 747 mmHg 58%
    17:00 +37°C° 0 mm 3 m/S 747 mmHg 60%
    18:00 +37°C° 0 mm 3 m/S 747 mmHg 63%
    19:00 +36°C° 0 mm 3 m/S 747 mmHg 65%
    20:00 +35°C° 0 mm 3 m/S 748 mmHg 68%
    21:00 +34°C° 0 mm 4 m/S 748 mmHg 71%
    22:00 +33°C° 0 mm 4 m/S 749 mmHg 71%
    23:00 +32°C° 0 mm 4 m/S 749 mmHg 72%

    22 Juli, Montag

    Zeit Temperatur Niederschläge Wind Luftdruck Luftfeuchtigkeit
    00:00 +32°C° 0 mm 4 m/S 749 mmHg 72%
    01:00 +32°C° 0 mm 5 m/S 749 mmHg 74%
    02:00 +30°C° 0 mm 5 m/S 748 mmHg 77%
    03:00 +30°C° 0 mm 5 m/S 748 mmHg 79%
    04:00 +30°C° 0 mm 5 m/S 748 mmHg 81%
    05:00 +30°C° 0 mm 5 m/S 748 mmHg 83%
    06:00 +30°C° 0 mm 5 m/S 749 mmHg 84%
    07:00 +32°C° 0.3 mm 5 m/S 749 mmHg 81%
    08:00 +33°C° 0.3 mm 6 m/S 750 mmHg 77%
    09:00 +34°C° 0.3 mm 6 m/S 750 mmHg 73%
    10:00 +35°C° 1.2 mm 6 m/S 750 mmHg 69%
    11:00 +36°C° 1.2 mm 5 m/S 749 mmHg 66%
    12:00 +36°C° 1.2 mm 5 m/S 749 mmHg 63%
    13:00 +36°C° 1.4 mm 5 m/S 748 mmHg 62%
    14:00 +36°C° 1.4 mm 4 m/S 748 mmHg 62%
    15:00 +37°C° 1.4 mm 4 m/S 747 mmHg 61%
    16:00 +36°C° 1.2 mm 4 m/S 747 mmHg 66%
    17:00 +35°C° 1.2 mm 3 m/S 747 mmHg 70%
    18:00 +34°C° 1.2 mm 3 m/S 747 mmHg 74%
    19:00 +33°C° 0.1 mm 3 m/S 747 mmHg 76%
    20:00 +33°C° 0.1 mm 4 m/S 748 mmHg 77%
    21:00 +32°C° 0.1 mm 4 m/S 748 mmHg 79%
    22:00 +30°C° 0 mm 5 m/S 749 mmHg 79%
    23:00 +30°C° 0 mm 5 m/S 749 mmHg 80%

    23 Juli, Dienstag

    Zeit Temperatur Niederschläge Wind Luftdruck Luftfeuchtigkeit
    00:00 +29°C° 0 mm 6 m/S 749 mmHg 81%
    01:00 +29°C° 0 mm 5 m/S 748 mmHg 83%
    02:00 +29°C° 0 mm 5 m/S 748 mmHg 85%
    03:00 +29°C° 0 mm 4 m/S 748 mmHg 87%
    04:00 +29°C° 0 mm 3 m/S 748 mmHg 87%
    05:00 +29°C° 0 mm 3 m/S 748 mmHg 88%
    06:00 +29°C° 0 mm 2 m/S 748 mmHg 88%
    07:00 +29°C° 0 mm 2 m/S 749 mmHg 86%
    08:00 +30°C° 0 mm 2 m/S 749 mmHg 85%
    09:00 +30°C° 0 mm 3 m/S 749 mmHg 83%
    10:00 +33°C° 0 mm 3 m/S 749 mmHg 77%
    11:00 +34°C° 0 mm 3 m/S 749 mmHg 72%
    12:00 +35°C° 0 mm 3 m/S 748 mmHg 66%
    13:00 +35°C° 0.6 mm 3 m/S 748 mmHg 65%
    14:00 +36°C° 0.6 mm 3 m/S 747 mmHg 64%
    15:00 +36°C° 0.6 mm 3 m/S 746 mmHg 62%
    16:00 +35°C° 0.8 mm 3 m/S 747 mmHg 67%
    17:00 +34°C° 0.8 mm 3 m/S 747 mmHg 71%
    18:00 +34°C° 0.8 mm 3 m/S 747 mmHg 75%
    19:00 +33°C° 0.9 mm 3 m/S 747 mmHg 78%
    20:00 +31°C° 0.9 mm 3 m/S 748 mmHg 81%
    21:00 +30°C° 0.9 mm 3 m/S 748 mmHg 84%
    22:00 +30°C° 0.4 mm 3 m/S 748 mmHg 85%
    23:00 +30°C° 0.4 mm 4 m/S 748 mmHg 87%

    24 Juli, Mittwoch

    Zeit Temperatur Niederschläge Wind Luftdruck Luftfeuchtigkeit
    00:00 +29°C° 0.4 mm 4 m/S 748 mmHg 89%
    01:00 +29°C° 0.1 mm 3 m/S 748 mmHg 90%
    02:00 +29°C° 0.1 mm 3 m/S 748 mmHg 90%
    03:00 +29°C° 0.1 mm 3 m/S 747 mmHg 91%
    04:00 +29°C° 0.3 mm 2 m/S 748 mmHg 92%
    05:00 +29°C° 0.3 mm 2 m/S 748 mmHg 92%
    06:00 +29°C° 0.3 mm 2 m/S 748 mmHg 92%
    07:00 +30°C° 0.3 mm 2 m/S 748 mmHg 87%
    08:00 +31°C° 0.3 mm 2 m/S 749 mmHg 82%
    09:00 +32°C° 0.3 mm 2 m/S 749 mmHg 77%
    10:00 +33°C° 1.2 mm 3 m/S 749 mmHg 74%
    11:00 +34°C° 1.2 mm 3 m/S 748 mmHg 72%
    12:00 +35°C° 1.2 mm 3 m/S 748 mmHg 70%
    13:00 +35°C° 1.4 mm 3 m/S 747 mmHg 68%
    14:00 +35°C° 1.4 mm 3 m/S 747 mmHg 67%
    15:00 +36°C° 1.4 mm 3 m/S 746 mmHg 66%
    16:00 +35°C° 1 mm 3 m/S 746 mmHg 69%
    17:00 +35°C° 1 mm 2 m/S 746 mmHg 72%
    18:00 +34°C° 1 mm 2 m/S 746 mmHg 75%
    19:00 +32°C° 0.3 mm 2 m/S 746 mmHg 78%
    20:00 +31°C° 0.3 mm 2 m/S 747 mmHg 80%
    21:00 +31°C° 0.3 mm 2 m/S 748 mmHg 83%
    22:00 +30°C° 0.3 mm 2 m/S 748 mmHg 84%
    23:00 +30°C° 0.3 mm 2 m/S 748 mmHg 85%
    Mehr zeigen